User: anonymous   Login
Location: Fiddletown
(38.4917°N, 120.6633°W)
Time: 16:51:01
(UTC-07:00)
Language:

Envisat - Orbit

View from above orbital plane
View from above orbital plane
View from above satellite
View from above satellite

Ground track
Ground track

The orbit data is extracted from the following two-line orbital elements,

1 27386U 02009A   17228.36971977 -.00000021  00000-0  67562-5 0  9991
2 27386  98.2259 271.1194 0001325  85.8688 274.2652 14.37900600809726
Epoch (UTC): 16 August 2017 08:52:23
Eccentricity: 0.0001325
inclination: 98.2259°
perigee height: 764 km
apogee height: 766 km
right ascension of ascending node: 271.1194°
argument of perigee: 85.8688°
revolutions per day: 14.37900600
mean anomaly at epoch: 274.2652°
orbit number at epoch: 80972

The dashed part of the orbit path shows where the satellite is in the earth's shadow,  

DLR